Location: Unspecified
(0.0000°N, 0.0000°E)
Time: 17:56:40
(UTC+02:00)

ATLAS 2AS CENTAUR R/B - Visible Passes

Search period start: 30 June 2016 00:00
Search period end: 10 July 2016 00:00
Orbit: 904 x 1308 km, 63.7° (Epoch: 24 June)

Date Brightness Start Highest point End Pass type
(mag) Time Alt. Az. Time Alt. Az. Time Alt. Az.
30 Jun 4.4 21:14:14 10° SSE 21:23:55 12° ENE 21:24:31 10° ENE visible
30 Jun 4.0 23:10:55 36° NW 23:10:55 36° NW 23:16:29 10° N visible
01 Jul 4.2 20:33:27 10° ESE 20:34:33 10° ESE 20:35:40 10° ESE visible
01 Jul 2.9 22:18:23 10° SSW 22:24:59 71° WNW 22:32:18 10° NNE visible
02 Jul 2.6 21:33:47 10° SSW 21:40:18 63° ESE 21:47:29 10° NNE visible
02 Jul 5.3 23:28:08 10° W 23:31:16 13° WNW 23:34:30 10° NW visible
03 Jul 3.3 20:49:50 10° S 20:55:39 33° ESE 21:01:58 10° NE visible
03 Jul 4.6 22:40:50 10° WSW 22:46:20 26° WNW 22:52:16 10° N visible
04 Jul 3.6 21:55:06 10° SW 22:01:30 49° WNW 22:08:33 10° N visible
05 Jul 2.7 21:10:07 10° SSW 21:16:45 90° WSW 21:24:07 10° NNE visible
06 Jul 2.9 20:25:46 10° S 20:32:06 49° ESE 20:39:02 10° NE visible
06 Jul 5.3 22:18:31 10° WSW 22:22:56 18° WNW 22:27:36 10° NNW visible
07 Jul 4.4 21:32:05 10° SW 21:38:03 34° WNW 21:44:33 10° N visible
08 Jul 5.8 07:21:21 10° NNE 07:26:34 20° ENE 07:31:29 10° ESE visible
08 Jul 3.3 20:46:41 10° SSW 20:53:15 63° WNW 21:00:31 10° NNE visible
09 Jul 5.9 21:57:24 10° W 21:59:34 11° WNW 22:01:48 10° NW visible
